{"data":{"norad_id":58417,"intl_designator":"2023-180R","name":"STARLINK-30955","alt_names":[],"object_type":"PAYLOAD","status":"ACTIVE","operator":null,"country":"US","launch_date":"2023-11-22","launch_site_code":"AFETR","launch_vehicle":null,"mission":null,"orbit_class":"UNKNOWN","rcs_meters":null,"size_class":null,"mass_kg":null,"dimensions":null,"purposes":["comms"],"wikipedia_slug":null,"has_3d_model":false,"image_url":null,"decayed_at":null,"tle_current":{"epoch":"2026-05-24T22:46:07.279104Z","epoch_age_seconds":75523,"freshness":"FRESH","line1":"1 58417U 23180R   26144.94869536  .00003531  00000+0  13783-3 0  9992","line2":"2 58417  43.0037 341.4559 0001279 267.7570  92.3135 15.27568285139294","mean_motion":15.27568285,"eccentricity":0.0001279,"inclination_deg":43.0037,"raan_deg":341.4559,"arg_perigee_deg":267.757,"mean_anomaly_deg":92.3135,"bstar":0.00013783,"rev_number":13929,"period_min":94.267471650212,"perigee_km":482.20662499998,"apogee_km":483.96172537659,"semimajor_km":6861.2211751883,"source":"CELESTRAK","updated_at":"2026-05-25T13:38:18.619742Z"}}}